weather station
Area: 11014 km2
The highest point: Tok (865 m.s.l.)
Total stations: 46
Stations online: 43
Stations offline: 3
Current weather
25°C

Meteorological map - weather stations in Středočeský

. The meteorological maps show weather information from WARIO weather stations

Weather stations Středočeský

 UpdatesNameStatusTemperatureHumidityWind speedWind direction
22.7.2018 14:38Kolín31.0 °C27.1 %0.9 m/s SE
22.7.2018 14:38Jílové u Prahy - Borek26.5 °C35.6 %1.5 m/s NE
22.7.2018 14:38Králův Dvůr23.8 °C37.9 %5.0 m/s N
22.7.2018 14:38Černé Voděrady24.2 °C36.7 %2.7 m/s W
22.7.2018 14:37Chotětov30.2 °C18.9 %1.1 m/s SE
22.7.2018 14:37Davle26.2 °C38.9 %1.3 m/s S
22.7.2018 14:37Opolany28.6 °C85.5 %1.6 m/s W
22.7.2018 14:38Hostín u Vojkovic25.8 °C40.6 %3.6 m/s NW
22.7.2018 14:38Sedlčany25.4 °C48.8 %1.0 m/s N
25.6.2018 20:17Hřebeč18.3 °C51.7 %0.5 m/s NE
22.7.2018 14:37Mělník26.2 °C28.5 %3.5 m/s SW
22.7.2018 14:38Jiřetice22.8 °C46.9 %1.8 m/s W
22.7.2018 14:38Kněžmost-11.3 °C10.4 %3.0 m/s NE
22.7.2018 14:38Kojetice30.0 °C23.3 %1.5 m/s NE
22.7.2018 14:38Ledečky27.7 °C36.7 %2.0 m/s N
22.7.2018 14:38Libeř30.3 °C27.4 %1.3 m/s W
22.7.2018 14:37Sazená23.4 °C41.2 %7.2 m/s N
22.7.2018 14:38Malý Újezd26.0 °C39.6 %2.2 m/s N
22.7.2018 14:38Zdice26.1 °C32.6 %1.6 m/s N
22.7.2018 14:37Červený Újezd25.0 °C40.2 %2.5 m/s W
12.7.2018 08:06Mělník14.9 °C70.0 %1.1 m/s S
22.7.2018 14:38Jince25.5 °C36.5 %3.0 m/s NE
22.7.2018 14:38Olešná22.4 °C55.6 %2.4 m/s N
22.7.2018 14:38Srby23.7 °C46.6 %1.8 m/s N
22.7.2018 14:37Kralupy nad Vltavou24.9 °C35.3 %18.5 m/s N
22.7.2018 14:38Mrač25.6 °C28.3 %1.6 m/s S
22.7.2018 14:37Velvary25.4 °C34.4 %3.8 m/s N
22.7.2018 14:37Dolní Jirčany25.7 °C46.3 %3.6 m/s N
22.7.2018 14:38Mladá Boleslav26.3 °C24.2 %0.0 m/s SE
22.7.2018 14:37Líbeznice25.2 °C35.1 %2.9 m/s N
25.6.2018 10:39Mratín19.1 °C100.0 %0.0 m/s NW
22.7.2018 14:38Mšecké Žehrovice23.9 °C43.4 %1.9 m/s NW
22.7.2018 14:38Odolena voda27.3 °C31.0 %4.8 m/s NW
22.7.2018 14:38Oseček29.5 °C34.7 %1.2 m/s N
22.7.2018 14:37Pátek26.8 °C29.9 %7.4 m/s NW
22.7.2018 14:37Radlice26.1 °C28.7 %1.4 m/s N
22.7.2018 14:38Husinec-Řež27.4 °C30.6 %1.3 m/s N
22.7.2018 14:38Semice26.5 °C26.6 %1.5 m/s W
22.7.2018 14:38Slaný25.7 °C37.0 %1.2 m/s W
22.7.2018 14:37Kosmonosy25.8 °C36.2 %4.0 m/s SE
22.7.2018 14:38Srby23.8 °C48.0 %2.5 m/s E
22.7.2018 14:37Vestec30.2 °C35.0 %2.1 m/s NW
22.7.2018 14:38Nebřich24.0 °C49.1 %0.0 m/s W
22.7.2018 14:38Vrbčany27.4 °C33.7 %1.8 m/s N
22.7.2018 14:38Všetaty26.1 °C34.5 %2.5 m/s N
22.7.2018 14:38Zibohlavy25.3 °C45.0 %1.9 m/s W
Email notifications
Enter your email address to subscribe to notifications about news at warioweather.com. Your email address will not be used for any purpose other than sending these emails and will not be provided to any third party. The subscription can be ended at any time.
All data are only indicative. The portal administrator has no responsibility for potentially incorrect data and related consequences. Publishing or further sharing of content from www.warioweather.com is only allowed with written consent from WANET s.r.o.